Flag for Cuba Weather past 2 weeks in Santiago de Cuba, Cuba

88 °F

Scattered clouds.

Feels Like: 96 °F
Forecast: 74 / 91 °F
Wind: 8 mph from Southwest

Location: Santiago De Cuba - Oriente

Current Time: Oct 7, 2015 at 3:50:09 PM

Latest Report: Oct 7, 2015 at 2:51 PM

Visibility: N/A

Pressure: 29.92 "Hg

Humidity: 62%

Dew point: 73 °F

Location of Santiago de CubaLocation

Historic Weather in Santiago de Cuba — Graph


Santiago de Cuba temperature yesterday

Maximum temperature yesterday: 86 °F (at 9:52 AM)
Minimum temperature yesterday: 77 °F (at 2:51 AM)
Average temperature yesterday: 82 °F

Past Weeks' High & Low Weather Summary

High90 °F (Sep 23, 1:50 PM)100% (Sep 23, 6:50 AM)30.01 "Hg (Sep 23, 6:50 AM)
Low73 °F (Sep 25, 6:51 AM)55% (Sep 23, 11:52 AM)29.56 "Hg (Oct 2, 3:52 AM)
Average81 °F79%29.85 "Hg
* Reported Sep 22 2:52 PM — Oct 7 2:51 PM, Santiago de Cuba, Weather by CustomWeather, © 2015

Note: Actual official high and low records may vary slightly from our data, if they occured in-between our weather recording intervals... More about our weather records


Santiago de Cuba weather history for previous 24 hours

Time TempWeatherWind HumidityBarometerVisibility
2:51 PM
Wed, Oct 7
88 °FScattered clouds.8 mph62%29.92 "HgN/A
1:51 PM88 °FScattered clouds.8 mph62%29.95 "HgN/A
12:51 PM88 °FPassing clouds.8 mph55%29.98 "HgN/A
11:51 AM88 °FPassing clouds.7 mph55%29.98 "HgN/A
10:50 AM88 °FPassing clouds.5 mph55%30.01 "HgN/A
9:50 AM86 °FPassing clouds.3 mph62%30.01 "HgN/A
8:50 AM82 °FPassing clouds.3 mph74%29.98 "HgN/A
7:50 AM77 °FPassing clouds.5 mph94%29.95 "Hg6 mi
6:50 AM75 °FPassing clouds.5 mph94%29.95 "Hg6 mi
5:51 AM75 °FPassing clouds.5 mph94%29.92 "Hg6 mi
4:50 AM75 °FPassing clouds.5 mph94%29.92 "Hg6 mi
3:50 AM77 °FPassing clouds.5 mph94%29.92 "Hg6 mi
2:50 AM77 °FPassing clouds.5 mph94%29.92 "Hg6 mi
1:51 AM77 °FPassing clouds.6 mph94%29.95 "Hg6 mi
12:50 AM77 °FPassing clouds.6 mph94%29.95 "Hg6 mi
11:50 PM
Tue, Oct 6
79 °FPassing clouds.3 mph89%29.98 "Hg6 mi
10:50 PM79 °FPassing clouds.5 mph89%29.98 "Hg6 mi
9:50 PM79 °FPassing clouds.6 mph84%29.98 "Hg6 mi
8:50 PM82 °FPassing clouds.3 mph70%29.95 "Hg6 mi
7:50 PM84 °FPassing clouds.3 mph66%29.95 "Hg6 mi
6:50 PM84 °FPassing clouds.3 mph66%29.92 "Hg6 mi
5:51 PM86 °FPassing clouds.5 mph66%29.92 "Hg6 mi
4:52 PM86 °FPassing clouds.8 mph66%29.92 "Hg6 mi
3:50 PM86 °FPassing clouds.9 mph66%29.92 "Hg6 mi
Weather by CustomWeather, © 2015

See weather overviewHow to use our weather pages